Weather History for Jackson, MN

Change the Weather History Date:

Thursday, October 25, 2012

  Actual Average Record
Temperature  
Mean Temperature 37 °F -  
Max Temperature 42 °F 52 °F 71 °F (2000)
Min Temperature 32 °F 34 °F 26 °F (2001)
Degree Days  
Heating Degree Days 28    
Moisture  
Dew Point 31 °F    
Average Humidity 84    
Maximum Humidity 100    
Minimum Humidity 70    
Precipitation  
Precipitation 0.53 in - - ()
Sea Level Pressure  
Sea Level Pressure 29.96 in    
Wind  
Wind Speed 20 mph (NW)    
Max Wind Speed 33 mph    
Max Gust Speed 45 mph    
Visibility 7 miles    
Events Rain , Snow , Thunderstorm    
Averages and records for this station are not official NWS values.
T = Trace of Precipitation, MM = Missing Value Source: NWS Daily Summary

Daily Weather History Graph

Daily Weather History Graph

Search for Another Location

Airport:

Trip Planner

Search our weather history database for the weather conditions in past years. The results will help you decide how hot, cold, wet, or windy it might be!

Date:

Astronomy

Oct. 25, 2012 Rise Set
Actual Time 7:47 AM CDT 6:19 PM CDT
Civil Twilight 7:17 AM CDT 6:49 PM CDT
Nautical Twilight 6:44 AM CDT 7:22 PM CDT
Astronomical Twilight 6:11 AM CDT 7:56 PM CDT
Moon 4:12 PM CDT (10/25) 3:37 AM CDT (10/25)
Length of Visible Light 11h 31m
Length of Day
10h 32m
Waxing Gibbous, 84% of the Moon is Illuminated
Oct 25
Waxing Gibbous
Oct 29
Full
Nov 6
Last Quarter
Nov 13
New
Nov 20
First Quarter

Hourly Weather History & Observations

Time (CDT) Temp. Windchill Dew Point Humidity Pressure Visibility Wind Dir Wind Speed Gust Speed Precip Events Conditions
12:14 AM 42.8 °F 35.4 °F 37.4 °F 81% 29.77 in 10.0 mi North 15.0 mph 26.5 mph N/A   Overcast
12:33 AM 42.8 °F 35.8 °F 37.4 °F 81% 29.78 in 10.0 mi North 13.8 mph 24.2 mph N/A   Overcast
12:53 AM 42.8 °F 34.8 °F 37.4 °F 81% 29.76 in 10.0 mi North 17.3 mph 23.0 mph N/A   Overcast
1:13 AM 41.0 °F 32.8 °F 37.4 °F 87% 29.75 in 10.0 mi North 16.1 mph 24.2 mph N/A Thunderstorm Overcast
1:33 AM 41.0 °F 32.8 °F 37.4 °F 87% 29.75 in 10.0 mi North 16.1 mph 27.6 mph N/A   Overcast
1:53 AM 41.0 °F 32.2 °F 37.4 °F 87% 29.73 in 5.0 mi North 18.4 mph 26.5 mph N/A   Overcast
2:33 AM 39.2 °F 30.8 °F 35.6 °F 87% 29.78 in 3.0 mi North 15.0 mph 31.1 mph 0.05 in Rain , Thunderstorm Rain
2:53 AM 39.2 °F 30.2 °F 35.6 °F 87% 29.73 in 3.0 mi North 17.3 mph 27.6 mph 0.09 in Rain , Thunderstorm Rain
3:13 AM 39.2 °F 29.8 °F 35.6 °F 87% 29.74 in 2.5 mi NNW 18.4 mph 24.2 mph 0.07 in Thunderstorm Overcast
3:33 AM 37.4 °F 27.5 °F 35.6 °F 93% 29.75 in 2.0 mi North 18.4 mph 25.3 mph 0.15 in Rain Light Rain
3:53 AM 37.4 °F 27.8 °F 35.6 °F 93% 29.72 in 1.8 mi North 17.3 mph 28.8 mph 0.24 in Snow Snow
4:13 AM 37.4 °F 26.6 °F 35.6 °F 93% 29.71 in 2.0 mi North 21.9 mph 27.6 mph 0.09 in Snow Light Snow
4:33 AM 37.4 °F 26.9 °F 35.6 °F 93% 29.71 in 4.0 mi NNW 20.7 mph 39.1 mph 0.12 in Rain Light Rain
4:53 AM 37.4 °F 25.9 °F 33.8 °F 87% 29.72 in 5.0 mi NNW 25.3 mph 36.8 mph 0.13 in Rain Light Rain
5:13 AM 35.6 °F 22.3 °F 33.8 °F 93% 29.71 in 5.0 mi NNW 31.1 mph 41.4 mph 0.01 in Rain , Thunderstorm Light Thunderstorms and Rain
5:33 AM 35.6 °F 23.2 °F 33.8 °F 93% 29.74 in 7.0 mi NNW 26.5 mph 39.1 mph 0.01 in Rain Light Rain
5:53 AM 35.6 °F 22.5 °F 33.8 °F 93% 29.77 in 7.0 mi NNW 29.9 mph 44.9 mph 0.02 in   Overcast
6:53 AM 33.8 °F 19.4 °F 32.0 °F 93% 29.79 in 4.0 mi NNW 33.4 mph 41.4 mph 0.03 in Rain Light Rain
7:13 AM 33.8 °F 21.3 °F 32.0 °F 93% 29.79 in 2.0 mi NNW 24.2 mph 40.3 mph 0.01 in Snow Light Snow
7:34 AM 33.8 °F 19.9 °F 32.0 °F 93% 29.79 in 2.0 mi NNW 31.1 mph 38.0 mph 0.01 in Snow Light Snow
7:53 AM 32.0 °F 17.9 °F 32.0 °F 100% 29.80 in 3.0 mi NNW 28.8 mph 43.7 mph 0.01 in Snow Light Snow
8:53 AM 32.0 °F 18.6 °F 32.0 °F 100% 29.85 in 4.0 mi NW 25.3 mph 34.5 mph 0.01 in Snow Light Snow
9:13 AM 32.0 °F 17.9 °F 32.0 °F 100% 29.83 in 1.2 mi NNW 28.8 mph 35.7 mph N/A Snow Light Snow
9:53 AM 32.0 °F 17.9 °F 32.0 °F 100% 29.88 in 1.5 mi NW 28.8 mph 38.0 mph N/A Snow Light Snow
10:13 AM 32.0 °F 17.0 °F 32.0 °F 100% 29.89 in 2.0 mi NW 33.4 mph 44.9 mph N/A Snow Light Snow
10:53 AM 32.0 °F 18.4 °F 32.0 °F 100% 29.91 in 4.0 mi NW 26.5 mph 44.9 mph N/A   Overcast
11:13 AM 32.0 °F 17.4 °F 32.0 °F 100% 29.92 in 7.0 mi NW 31.1 mph 41.4 mph N/A   Overcast
11:34 AM 32.0 °F 18.1 °F 32.0 °F 100% 29.93 in 3.0 mi NW 27.6 mph 40.3 mph N/A Snow Light Snow
11:53 AM 32.0 °F 17.6 °F 32.0 °F 100% 29.94 in 3.0 mi NW 29.9 mph 36.8 mph N/A Snow Light Snow
12:13 PM 33.8 °F 21.9 °F 32.0 °F 93% 29.95 in 4.0 mi NW 21.9 mph 34.5 mph N/A Snow Light Snow
12:34 PM 33.8 °F 20.5 °F 32.0 °F 93% 29.96 in 10.0 mi NW 27.6 mph 40.3 mph N/A Snow Light Snow
12:53 PM 33.8 °F 20.3 °F 32.0 °F 93% 29.97 in 10.0 mi NW 28.8 mph 34.5 mph N/A   Overcast
1:53 PM 35.6 °F 22.3 °F 30.2 °F 81% 29.98 in 10.0 mi NW 31.1 mph 36.8 mph N/A   Overcast
2:14 PM 35.6 °F 22.7 °F 30.2 °F 81% 29.99 in 10.0 mi NW 28.8 mph 41.4 mph N/A   Overcast
2:33 PM 35.6 °F 23.7 °F 30.2 °F 81% 29.99 in 10.0 mi NW 24.2 mph 35.7 mph N/A   Overcast
2:53 PM 35.6 °F 22.7 °F 30.2 °F 81% 30.00 in 10.0 mi NW 28.8 mph 33.4 mph N/A   Overcast
3:13 PM 35.6 °F 23.7 °F 30.2 °F 81% 30.01 in 10.0 mi NW 24.2 mph 32.2 mph N/A   Overcast
3:33 PM 35.6 °F 23.7 °F 30.2 °F 81% 30.02 in 10.0 mi NW 24.2 mph 32.2 mph N/A   Overcast
3:53 PM 35.6 °F 22.3 °F 28.4 °F 75% 30.03 in 10.0 mi NW 31.1 mph 39.1 mph N/A   Overcast
4:33 PM 35.6 °F 23.4 °F 28.4 °F 75% 30.06 in 10.0 mi NW 25.3 mph 36.8 mph N/A   Overcast
4:53 PM 35.6 °F 24.0 °F 28.4 °F 75% 30.07 in 10.0 mi NW 23.0 mph 34.5 mph N/A   Overcast
5:13 PM 35.6 °F 24.2 °F 28.4 °F 75% 30.08 in 10.0 mi NW 21.9 mph 26.5 mph N/A   Overcast
5:33 PM 35.6 °F 24.8 °F 28.4 °F 75% 30.10 in 10.0 mi NW 19.6 mph 26.5 mph N/A   Overcast
5:53 PM 35.6 °F 25.5 °F 28.4 °F 75% 30.11 in 10.0 mi NW 17.3 mph 21.9 mph N/A   Overcast
6:14 PM 35.6 °F 25.2 °F 28.4 °F 75% 30.12 in 10.0 mi NW 18.4 mph 24.2 mph N/A   Overcast
6:33 PM 35.6 °F 27.1 °F 28.4 °F 75% 30.13 in 10.0 mi NW 12.7 mph 20.7 mph N/A   Overcast
6:53 PM 35.6 °F 26.2 °F 28.4 °F 75% 30.14 in 10.0 mi WNW 15.0 mph - N/A   Overcast
7:13 PM 35.6 °F 24.5 °F 28.4 °F 75% 30.15 in 10.0 mi NW 20.7 mph 25.3 mph N/A   Overcast
7:33 PM 35.6 °F 25.5 °F 28.4 °F 75% 30.17 in 10.0 mi NW 17.3 mph 23.0 mph N/A   Overcast
7:53 PM 35.6 °F 26.2 °F 26.6 °F 70% 30.17 in 10.0 mi NW 15.0 mph 27.6 mph N/A   Overcast
8:13 PM 35.6 °F 25.5 °F 28.4 °F 75% 30.18 in 10.0 mi NW 17.3 mph - N/A   Overcast
8:33 PM 35.6 °F 27.1 °F 28.4 °F 75% 30.19 in 10.0 mi WNW 12.7 mph 19.6 mph N/A   Overcast
8:53 PM 35.6 °F 26.2 °F 26.6 °F 70% 30.19 in 10.0 mi WNW 15.0 mph 18.4 mph N/A   Overcast
9:13 PM 35.6 °F 27.1 °F 26.6 °F 70% 30.20 in 10.0 mi NW 12.7 mph 20.7 mph N/A   Overcast
9:33 PM 35.6 °F 27.1 °F 28.4 °F 75% 30.21 in 10.0 mi NW 12.7 mph - N/A   Overcast
9:53 PM 35.6 °F 28.0 °F 28.4 °F 75% 30.22 in 10.0 mi WNW 10.4 mph - N/A   Overcast
10:13 PM 35.6 °F 26.2 °F 26.6 °F 70% 30.22 in 10.0 mi NW 15.0 mph - N/A   Overcast
10:33 PM 35.6 °F 26.2 °F 26.6 °F 70% 30.23 in 10.0 mi NW 15.0 mph 19.6 mph N/A   Overcast
10:53 PM 35.6 °F 27.5 °F 26.6 °F 70% 30.23 in 10.0 mi WNW 11.5 mph 19.6 mph N/A   Overcast
11:14 PM 35.6 °F 27.1 °F 26.6 °F 70% 30.24 in 10.0 mi WNW 12.7 mph - N/A   Overcast
11:53 PM 35.6 °F 25.2 °F 26.6 °F 70% 30.25 in 10.0 mi WNW 18.4 mph 21.9 mph N/A   Overcast